Regional Weather Roundup
Issued by NWS Charleston, SC

Current Version | Previous Version | Graphics & Text | Print | Product List | Glossary On
Versions: 1 2 3 4 5 6 7 8 9 10 11 12 13 14 15 16 17 18 19 20 21 22 23 24 25 26 27 28 29 30 31 32 33 34 35 36 37 38 39 40 41 42 43 44 45 46 47 48 49 50
000 ASUS42 KCHS 241625 RWRCHS REGIONAL WEATHER ROUNDUP NATIONAL WEATHER SERVICE CHARLESTON SC 1100 AM EST SAT JAN 24 2015 NOTE: "FAIR" INDICATES FEW OR NO CLOUDS BELOW 12,000 FEET WITH NO SIGNIFICANT WEATHER AND/OR OBSTRUCTIONS TO VISIBILITY. NOT ALL STATIONS ARE QUALITY CONTROLLED BY THE NATIONAL WEATHER SERVICE. USE DATA WITH CAUTION...ESPECIALLY DEWPOINT OBSERVATIONS. SCZ027-030-031-034>040-042>050-241700- ...SOUTHEAST SOUTH CAROLINA... CITY SKY/WX TMP DP RH WIND PRES REMARKS N CHARLESTON PTSUNNY 50 44 80 W12G25 29.72R WATERFRONT PRK N/A 52 N/A N/A W14G21 N/A MOUNT PLEASANT LGT RAIN N/A N/A N/A W16G24 29.70S PINOPOLIS NOT AVBL MONCKS CORNER CLOUDY 48 43 81 W6 29.72R SUMMERVILLE CLOUDY 46 45 93 W14G28 29.74R BEAUFORT MCAS PTSUNNY 52 43 71 W23G31 29.77R BEAUFORT ARPT PTSUNNY 54 46 76 W25G35 29.76R HILTON HEAD IS PTSUNNY 54 45 71 W15G29 29.77R WALTERBORO CLOUDY 48 48 100 W17G28 29.76S ALLENDALE CLOUDY 48 43 81 VRB7G15 29.76S ...SOUTHERN MIDLANDS AND PEE DEE... CITY SKY/WX TMP DP RH WIND PRES REMARKS GEORGETOWN NOT AVBL KINGSTREE NOT AVBL ORANGEBURG CLOUDY 46 40 79 W10G22 29.73S BARNWELL CLOUDY 48 43 81 W9G17 29.76R AIKEN CLOUDY 46 43 87 W17 29.77R MANNING NOT AVBL COLUMBIA CLOUDY 46 45 96 W10 29.72R SUMTER CLOUDY 42 40 93 W16 29.69R FLORENCE CLOUDY 43 40 89 W13 29.68R MYRTLE BEACH CLOUDY 48 43 81 W12G24 29.65R N MYRTLE BEACH CLOUDY 47 44 90 W17G30 29.62R $$ GAZ063-065-086>088-099>101-113>116-118-119-134>141-150-241700- ...SOUTHEAST GEORGIA... CITY SKY/WX TMP DP RH WIND PRES REMARKS SAVANNAH ARPT PTSUNNY 53 43 68 W17G33 29.80R HUNTER AAF PTSUNNY 56 46 68 W14G25 29.77S FORT STEWART CLOUDY 53 45 75 W15G31 29.82R STATESBORO CLOUDY 49 47 90 W21G26 29.82S SYLVANIA CLOUDY 49 45 84 W15 29.81R CLAXTON FAIR 50 45 81 W15G24 29.84R ...CSRA...CENTRAL AND FAR SOUTHEAST GEORGIA... CITY SKY/WX TMP DP RH WIND PRES REMARKS THOMSON MOSUNNY 49 42 74 W12G24 29.83R AUGUSTA-BUSH CLOUDY 49 41 74 W15G23 29.77R AUGUSTA-DANIEL CLOUDY 49 40 71 W10G24 29.77R SWAINSBORO CLOUDY 48 37 66 W16G23 29.86R VIDALIA CLOUDY 50 43 76 W18G26 29.87R EASTMAN CLOUDY 47 43 84 W14G22 29.93R HAZLEHURST CLOUDY 48 46 93 W6G18 29.90R ALMA CLOUDY 48 42 80 W18G25 29.90R WAYCROSS CLOUDY 53 46 77 NW21G28 29.91R JESUP CLOUDY 54 48 82 NW12G23 29.88R BAXLEY CLOUDY 50 43 76 W12G28 29.89R BRUNSWICK CLOUDY 55 46 71 W15G29 29.85S SAINT SIMONS PTSUNNY 57 45 64 W20G30 29.84R $$ SCZ027-028-034-036>038-045-046-048>050-GAZ119-141-241700- ...LAKE AND SUPPLEMENTAL COASTAL OBSERVATIONS... STATION/POSITION TIME TEMP WIND PRES WAVE SWELL AIR SEA DIR/SP/G HT/PER HT/PER/DIR (UTC) (F) (DEG/KT/KT) (MB) (FT/S) (FT/S/D) UPR LAKE MARION NOT AVBL WINYAH BAY 1600 47 270/ 13 1003.0S LAKE MURRAY 1500 42 250/ 10/ 13 1005.8R ACE BASIN NERRS 1600 51 270/ 8 1007.0S FORT PULASKI 1600 53 54 270/ 24/ 29 1008.9R SAPELO ISLAND 1600 54 290/ 12 1010.0R $$ ANZ835-935-AMZ111-154-330-350-352-354-370-450-454-472-241700- ...C-MAN AND BUOY OBSERVATIONS... STATION/POSITION TIME TEMP WIND PRES WAVE SWELL AIR SEA DIR/SP/G HT/PER HT/PER/DIR (UTC) (F) (DEG/KT/KT) (MB) (FT/S) (FT/S/D) BUOY 41004 1600 58 70 280/ 33/ 41 1002.9R 11/10 7/10 BUOY 41008 1600 53 55 300/ 21/ 27 1008.7R 7/ 5 FOLLY BEACH CMAN 1600 51 270/ 13/ 19 1006.4R CAPERS NEARSHORE 1500 52 270/ 21/ 25 N/A FRIPP NEARSHORE 1500 53 310/ 25/ 31 N/A STATION/POSITION TIME TEMP WIND PRES WAVE SWELL AIR SEA DIR/SP/G HT/PER HT/PER/DIR (UTC) (F) (DEG/KT/KT) (MB) (FT/S) (FT/S/D) 5E ST. MARYS GA 1600 58 N/A 4/ 4 FRYING PAN BUOY 1600 56 67 270/ 27/ 31 1001.3R 13/11 8/190/11 BUOY 41025 1600 73 320/ 19/ 25 995.1R 17/11 15/160/11 CAPE LOOKOUT NC 1600 49 290/ 14/ 17 998.4R BUOY 41002 1533 74 73 220/ 33/ 41 1003.2F 12/ 8 BUOY 41010 1600 77 77 210/ 31/ 39 1007.6S 12/ 8 ST AUGUSTINE FL 1600 56 270/ 16/ 22 1012.3R $$

USA.gov is the U.S. government's official web portal to all federal, state and local government web resources and services.